Tracking 25648 objects as of 17-May-2022
HD Live streaming from Space Station
objects crossing your sky now

ONEWEB-0169

Track ONEWEB-0169 now!
10-day predictions
ONEWEB-0169 is classified as:


NORAD ID: 48077
Int'l Code: 2021-025AM
Perigee: 1,215.3 km
Apogee: 1,218.5 km
Inclination: 87.9 °
Period: 109.6 minutes
Semi major axis: 7587 km
RCS: Unknown
Launch date: March 25, 2021
Source: United States (US)
Launch site: VOSTOCHNY COSMODROME (VOSTO)
aabbcc
Your satellite tracking list
Your tracking list is empty




NASA's NSSDC Master Catalog

Two Line Element Set (TLE):
1 48077U 21025AM  22137.09211102  .00000355  00000-0  93657-3 0  9993
2 48077  87.9016 256.6532 0002137 102.6678 257.4690 13.13467535 57677
Source of the keplerian elements: AFSPC